Regional Weather Roundup
Issued by NWS

Home | Current Version | Previous Version | Text Only | Print | Product List | Glossary On
Versions: 1 2 3 4 5 6 7 8 9 10 11 12 13 14 15 16 17 18 19 20 21 22 23 24 25 26 27 28 29 30 31 32 33 34 35 36 37 38 39 40 41 42 43 44 45 46 47 48 49 50
000
ASUS43 KLMK 020602
RWRKY
KENTUCKY REGIONAL WEATHER ROUNDUP
NATIONAL WEATHER SERVICE LOUISVILLE KY
200 AM EDT MON MAY 02 2016

NOTE "FAIR" INDICATES FEW OR NO CLOUDS BELOW 12,000 FEET
WITH NO SIGNIFICANT WEATHER AND/OR OBSTRUCTIONS TO VISIBILITY.

KYZ001>023-026-027-061>063-070>075-020700-
WESTERN AND SOUTH CENTRAL KENTUCKY

CITY           SKY/WX    TMP DP  RH WIND       PRES   REMARKS
PADUCAH        CLEAR     62  48  60 NW6       29.99R
HENDERSON      CLOUDY    63  50  63 NW12G18   29.98R
OWENSBORO      CLOUDY    64  53  67 NW12      29.98R
HOPKINSVILLE   PTCLDY    65  64  96 W5        29.95F
BOWLING GREEN  MOCLDY    68  64  87 SW7       29.95S
GLASGOW        NOT AVBL
$$

KYZ024-025-028>034-038-045-046-053-020700-
NORTH CENTRAL KENTUCKY

CITY           SKY/WX    TMP DP  RH WIND       PRES   REMARKS
LOUISVILLE/SDF PTCLDY    68  62  81 W12       29.92R
LOUISVILLE/LOU MOCLDY    68  62  81 W8        29.92R
FORT KNOX      MOCLDY    66  61  84 SW12      29.91R
$$

KYZ035>037-039>044-047>052-055>060-089>105-020700-
NORTHEAST KENTUCKY

CITY           SKY/WX    TMP DP  RH WIND       PRES   REMARKS
LEXINGTON      CLEAR     64  60  87 SW9       29.92F
COVINGTON      CLOUDY    63  61  93 W9G18     29.89R
FRANKFORT      CLEAR     64  60  87 SW7       29.91S
$$

KYZ054-064>069-076>088-106>120-020700-
SOUTHEAST KENTUCKY

CITY           SKY/WX    TMP DP  RH WIND       PRES   REMARKS
JACKSON        PTCLDY    62  59  90 CALM      29.95F
LONDON         MOCLDY    68  61  78 SW7       29.97S
SOMERSET       NOT AVBL
MIDDLESBORO    NOT AVBL
MONTICELLO     CLOUDY    68  63  84 W14       29.99S
$$





USA.gov is the U.S. government's official web portal to all federal, state and local government web resources and services.